STARLINK-11382, 62881

Orbit data source: Space-Track

STARLINK-11382, 62881 is a payload satellite owned by SpaceX/Seattle (US) in LEO that was launched on Tue, 04 Feb 2025 UTC via an FALCON 9 launch vehicle from the Air Force Eastern Test Range (AFETR). Payload-class satellites include a variety of spacecraft equipped with specific instruments for various scientific and technological missions. These include communications satellites like Starlink; space stations such as the ISS; scientific satellites like the Hubble; Earth observation satellites from companies like Planet Labs, Umbra, and HawkEye 360; GPS; miniature CubeSats for education and research; and military/defense satellites.

Loading next visibility...
Identifier
62881, 2025-024C
Orbit
LEO
Country
Flag of USUS
Related business
Manufacturer
SpaceX/Seattle
Mission
Operational Commercial Communications
Bus & Motor
STARLINK V2MD, Unknown motor
Mass
960 kg wet, ~910 kg dry
Launch date (UTC)
2025-02-04 (1 year ago)
Launch vehicle
FALCON 9
Launch site
Air Force Eastern Test Range (AFETR)
Object type
Payload
Rocket body
Debris
Shape & HBR
Box + 2 Pan, 18.1 m
Radar Cross Section
36.964 m², Large (>1 m²)

Expand to show TLE details & history
Last TLE update: 15 hours ago

TLE from 15 hours ago
0 STARLINK-11382
1 62881U 25024C   26129.84289207  .00119979  00000-0  92493-3 0  9994
2 62881  43.0008 172.9166 0001063 258.0146 102.0603 15.70843998 73084
Epoch: 2026-05-09T20:13Z
TLE epoch observation values (Epoch: 2026-05-09T20:13:45.874Z)
Latitude
-0°
Longitude
1.82094°
Altitude
356.405 km
Speed
7.697 km/s
True Right ascension
11h 31m 39s
True Declination
0° 00' 00"
Sunlit
Object was in full shadow at epoch
Visualization orbit readout
Latitude
Unknown
Longitude
Unknown
Altitude
Unknown
Speed
Unknown
Apparent Right ascension
Unknown
Apparent Declination
Unknown
Sunlit
N/A
Visualization observer readout
Local Sidereal Time
19:38:18
Azimuth
Unknown
Elevation
Unknown
Doppler factor
Unknown
Orbital elements
Apogee altitude
359.181 km
Perigee altitude
357.749 km
Semi-major axis
6,736.602 km
Eccentricity
0.00011
Inclination
43.0008°
RAAN
172.9166°
Arg. of periapsis
258.0146°
True anomaly
102.07221°
Mean anomaly
102.0603°
Eccentric anomaly
102.06626°
Mean motion
3.92538 °/min
Orbital period
91.71 mins
BSTAR
0.00092493
Loading maneuver chart data...
Computing Atmospheric mass density...
Loading historical data...
Loading historical data...
Loading historical data...
Loading historical data...
Loading historical data...
Loading historical data...
Loading historical data...

Documentation

Showing up to 5 results
|